Location: *
(52.2090°N, 4.1550°W)
Time: 14:38:02
(UTC+00:00)

Cosmos 1500 Rocket - Pass Details

Date: 28 October 2019
Orbit: 603 x 631 km, 82.5° (Epoch: 20 November)

Event Time Altitude Azimuth Distance (km) Brightness Sun altitude
Rises 20:46:19 0° 338° (NNW) 2,934 7.6 -35.2°
Reaches altitude 10° 20:49:01 10° 322° (NW) 2,017 6.8 -35.5°
Enters shadow 20:51:21 19° 292° (WNW) 1,498 6.1 -35.9°
